Tabella_dati_meteo_3mesi
GIORNO ORA SOLARE Palazzo Cavalli Pressione (hPa) Palazzo Cavalli Temperatura (°C) Palazzo Cavalli Umidità (%) San Giorgio Radiazione solare (W/m2) San Giorgio V. Vento med.10m (m/s) San Giorgio D. Vento med.10m (GN) P. Salute Temp H2O (°C)
19/08/19 00:10 1014.3 25.2 77 0 1.2 86 26.8
19/08/19 00:20 1014.3 25.1 77 0 1.2 34 26.8
19/08/19 00:30 1014.3 25.2 81 0 1.2 43 26.9
19/08/19 00:40 1014.2 25 82 1.5 24 26.9
19/08/19 00:50 1014.2 24.6 83 0 2.1 27 26.8
19/08/19 01:00 1014.1 24.7 83 0 2.6 21 26.8
19/08/19 01:10 1014.1 24.6 83 0 1.9 34 26.8
19/08/19 01:20 1014 24.7 83 2.3 38 26.7
19/08/19 01:30 1013.9 24.5 83 0 2.5 37 26.7
19/08/19 01:40 1013.9 24.6 83 0 2.9 43 26.7
19/08/19 01:50 1014 24.5 83 0 2.5 27 26.7
19/08/19 02:00 1014.1 24.4 83 3.1 21 26.7
19/08/19 02:10 1014 24.1 83 0 2.9 19 26.7
19/08/19 02:20 1014 24.1 83 0 2.7 26 26.7
19/08/19 02:30 1013.9 24.2 83 0 3.2 38 26.6
19/08/19 02:40 1014 24.3 84 0 2.8 42 26.6
19/08/19 02:50 1014 24.1 84 0 2.5 38 26.6
19/08/19 03:00 1014 24.2 85 0 2 47 26.6
19/08/19 03:10 1013.9 24 86 0 2.2 55 26.6
19/08/19 03:20 1014 24.1 86 2.1 58 26.6
19/08/19 03:30 1013.9 24.1 87 2.5 66 26.6
19/08/19 03:40 1013.9 24.1 87 0 2.5 56 26.5
19/08/19 03:50 1013.7 24 87 0 2.4 48 26.5
19/08/19 04:00 1013.8 24 85 0 2.3 52 26.5
19/08/19 04:10 1013.8 24.1 86 0 2.3 41 26.5
19/08/19 04:20 1013.8 24.1 85 0 2 41 26.5
19/08/19 04:30 1013.9 24.1 85 1.9 39 26.5
19/08/19 04:40 1013.9 24 84 2.7 30 26.5
19/08/19 04:50 2.9 20 26.5
19/08/19 05:00 0 2.4 27 26.5
19/08/19 05:10 1013.9 23.6 87 1 2.3 22 26.5
19/08/19 05:20 1014.1 23.7 87 5 3.1 27 26.5
19/08/19 05:30 1014 23.6 87 13 2.5 43 26.5
19/08/19 05:40 1014.1 23.6 88 26 2.3 56 26.4
19/08/19 05:50 1014.1 23.5 88 46 2.1 53 26.5
19/08/19 06:00 1014.1 23.6 89 69 2.6 43 26.4
19/08/19 06:10 1014.1 23.7 88 93 2.4 52 26.4
19/08/19 06:20 1014 23.8 87 122 2.8 61 26.5
19/08/19 06:30 1014.2 24 87 150 2.3 49 26.5
19/08/19 06:40 1014.3 24.2 84 178 2.5 33 26.5
19/08/19 06:50 1014.2 24.5 82 207 2.2 50 26.5
19/08/19 07:00 1014.2 25.4 81 242 2.7 72 26.5
19/08/19 07:10 1014.3 26 80 271 2.2 66 26.5
19/08/19 07:20 1014.4 26.5 78 301 2.1 56 26.5
19/08/19 07:30 1014.5 26.8 76 333 2.3 60 26.6
19/08/19 07:40 1014.4 27.3 74 369 2.4 43 26.7
19/08/19 07:50 1014.4 27.2 72 399 2.1 66 26.8
19/08/19 08:00 1014.5 27.6 72 428 2.2 45 26.8
19/08/19 08:10 1014.5 27.8 71 461 2.8 26 26.8
19/08/19 08:20 1014.6 28.1 70 537 2.8 26 26.8
19/08/19 08:30 1014.6 28.2 68 225 2.8 28 26.8
19/08/19 08:40 1014.6 28 69 368 2.6 34 26.9
19/08/19 08:50 1014.7 27.8 69 601 2.8 129 26.9
19/08/19 09:00 1014.7 28.8 69 619 2.7 126 26.9
19/08/19 09:10 1014.7 28.2 64 636 2.9 134 26.9
19/08/19 09:20 1014.7 28.3 64 661 2.9 124 26.9
19/08/19 09:30 1014.8 28.3 63 682 2.9 121
19/08/19 09:40 1014.9 28.9 62 713 2.9 133
19/08/19 09:50 1015.1 29.2 61 737 2.2 128 26.9
19/08/19 10:00 1015.1 28.8 59 737 2.6 128 26.9
19/08/19 10:10 1015.2 30.2 57 783 2.2 134 26.9
19/08/19 10:20 1015.3 29 57 784 2.3 142 27
19/08/19 10:30 1015.3 29.2 57 796 2.4 140 26.9
19/08/19 10:40 1015.3 29 58 812 2.7 135 26.9
19/08/19 10:50 1015.3 29.6 59 837 2.5 139 26.9
19/08/19 11:00 1015.3 29 58 842 2.8 130 26.9
19/08/19 11:10 1015.2 28.9 58 850 3.7 130 26.9
19/08/19 11:20 1015.2 28.7 58 858 3.4 132 27
19/08/19 11:30 1015.3 29.2 58 881 3.8 134 27
19/08/19 11:40 1015.3 29 58 828 3.6 134 27.1
19/08/19 11:50 1015.4 28.8 57 856 2.9 127 27.1
19/08/19 12:00 1015.4 29.1 57 844 2.5 141 27.1
19/08/19 12:10 1015.5 28.8 57 878 2.8 126 27.2
19/08/19 12:20 1015.4 29.1 57 875 2.6 135 27.2
19/08/19 12:30 1015.5 29.8 56 870 2.7 132 27.1
19/08/19 12:40 1015.5 29.7 56 863 2.5 147 27.2
19/08/19 12:50 1015.5 28.5 56 857 2.6 158 27.2
19/08/19 13:00 1015.5 28.9 57 847 2.4 157 27.2
19/08/19 13:10 1015.6 29 57 836 2.3 154 27.1
19/08/19 13:20 1015.6 28.6 58 824 2.1 151 27.2
19/08/19 13:30 1015.5 29.9 58 812 1.8 158 27.2
19/08/19 13:40 1015.5 29.2 58 795 2.3 146 27.2
19/08/19 13:50 1015.5 29.2 58 772 1.6 146 27.2
19/08/19 14:00 1015.5 29.9 56 751 0.9 147 27.3
19/08/19 14:10 1015.4 29.2 56 736 1.3 153 27.3
19/08/19 14:20 1015.3 29 55 718 2.2 177 27.3
19/08/19 14:30 1015.1 29.4 56 698 2.2 170 27.4
19/08/19 14:40 1015.2 29.1 57 673 2.3 155 27.4
19/08/19 14:50 1015 28.9 57 646 2.4 146 27.4
19/08/19 15:00 1014.9 29.7 54 617 2.5 142 27.5
19/08/19 15:10 1014.9 29.3 55 583 2.6 134 27.5
19/08/19 15:20 1014.9 29.8 56 557 2.8 132 27.5
19/08/19 15:30 1014.7 29.9 54 533 2.9 137 27.5
19/08/19 15:40 1014.7 30 53 505 2.8 125 27.5
19/08/19 15:50 1014.8 29.6 49 469 2.3 122 27.5
19/08/19 16:00 1014.8 29.4 49 441 2.3 145 27.4
19/08/19 16:10 1014.8 29.6 48 408 2.3 145 27.5
19/08/19 16:20 1014.7 29.5 50 377 2.2 141 27.5
19/08/19 16:30 1014.6 29.5 52 348 2.6 119 27.5
19/08/19 16:40 1014.5 28.9 54 317 3.2 125 27.5
19/08/19 16:50 1014.3 29 55 289 3 126 27.5
19/08/19 17:00 1014.4 28.9 57 258 2.7 125 27.5
19/08/19 17:10 1014.4 28.7 57 230 2.4 123 27.5
19/08/19 17:20 1014.4 28.4 60 200 2.5 127 27.5
19/08/19 17:30 1014.5 28 61 171 2.9 128 27.5
19/08/19 17:40 1014.5 28 62 144 2.8 137 27.5
19/08/19 17:50 1014.6 27.8 63 113 2.5 146 27.5
19/08/19 18:00 1014.5 27.8 65 98 2.2 136 27.5
19/08/19 18:10 1014.5 27.8 65 77 2 129 27.5
19/08/19 18:20 1014.6 27.6 66 50 1.8 114 27.5
19/08/19 18:30 1014.6 27.6 65 36 1.6 121 27.5
19/08/19 18:40 1014.5 27.6 67 27 1.4 105 27.4
19/08/19 18:50 1014.5 27.6 67 21 2.5 119 27.4
19/08/19 19:00 1014.6 27.2 70 9 2.7 125 27.4
19/08/19 19:10 1014.6 27.1 71 3 2.4 115 27.4
19/08/19 19:20 1014.6 26.9 72 0 2.2 115 27.4
19/08/19 19:30 1014.6 26.8 73 3 133 27.4
19/08/19 19:40 1014.7 26.9 74 0 3.2 146 27.3
19/08/19 19:50 1014.9 27 75 2.9 145 27.3
19/08/19 20:00 3.2 147 27.3
19/08/19 20:10 1015.2 26.9 76 0 3.3 156 27.3
19/08/19 20:20 1015.3 26.7 77 3.2 149 27.3
19/08/19 20:30 1015.3 26.7 78 0 3.2 151 27.3
19/08/19 20:40 1015.5 26.7 80 0 3.1 154 27.3
19/08/19 20:50 1015.6 26.6 81 0 2.6 160 27.3
19/08/19 21:00 1015.5 26.6 81 0 2.4 145 27.4
19/08/19 21:10 1015.5 26.6 82 2.2 157 27.5
19/08/19 21:20 1015.6 26.5 83 2.6 156 27.5
19/08/19 21:30 1015.6 26.6 84 2.5 157 27.5
19/08/19 21:40 1015.7 26.5 84 0 1.7 140 27.6
19/08/19 21:50 1015.7 26.5 84 1.8 150 27.4
19/08/19 22:00 1015.8 26.4 84 0 1.6 146 27.4
19/08/19 22:10 1015.9 26.4 84 0 1.3 142 27.4
19/08/19 22:20 1015.9 26.4 84 1.3 134 27.4
19/08/19 22:30 1015.8 26.4 85 0 1.2 119 27.3
19/08/19 22:40 1015.7 26.4 85 0 1.1 78 27.3
19/08/19 22:50 1015.7 26.3 85 1.2 102 27.3
19/08/19 23:00 1015.7 26.3 85 1.2 90 27.3
19/08/19 23:10 1015.7 26.2 85 0 1.2 62 27.2
19/08/19 23:20 1015.7 26.1 85 0 0.7 78 27.3
19/08/19 23:30 1015.6 26 86 0 0.9 77 27.4
19/08/19 23:40 1015.5 26.1 85 1.1 64 27.4
19/08/19 23:50 1015.5 26.1 87 1.8 72 27.4
20/08/19 00:00 1015.7 26.1 87 1.9 34 27.4
20/08/19 00:10 1015.7 26 86 0 1.9 34 27.4
20/08/19 00:20 1015.8 26.1 86 2 22 27.4
20/08/19 00:30 1015.8 26.1 88 0 1.6 40 27.3
20/08/19 00:40 1015.6 25.7 87 0 3.1 19 27.3
20/08/19 00:50 1015.6 25.5 88 0 2.5 30 27.3
20/08/19 01:00 1015.5 25.4 88 0 3.1 18 27.3
20/08/19 01:10 1015.5 25.4 88 0 3.1 23 27.3
20/08/19 01:20 1015.5 25.3 88 0 3.5 22 27.3
20/08/19 01:30 1015.5 25.1 88 0 3.9 18 27.3
20/08/19 01:40 1015.4 24.9 87 0 4 21 27.2
20/08/19 01:50 1015.3 24.8 87 4.6 27 27.2
20/08/19 02:00 1015.3 25 87 4.6 21 27.2
20/08/19 02:10 1015.4 25 88 4.8 26 27.2
20/08/19 02:20 1015.5 25 88 4.3 27 27.2
20/08/19 02:30 1015.6 25 88 0 4.2 32 27.2
20/08/19 02:40 1015.5 25 88 0 3.6 33 27.2
20/08/19 02:50 1015.5 24.8 86 0 4.4 24 27.2
20/08/19 03:00 1015.6 24.8 83 0 4.7 25 27.2
20/08/19 03:10 1015.6 24.7 82 0 4.5 28 27.2
20/08/19 03:20 1015.6 24.7 85 0 3.8 38 27.2
20/08/19 03:30 0 3.6 38 27.2
20/08/19 03:40 0 3.7 44 27.2
20/08/19 03:50 1015.4 24.5 90 3.3 40 27.2
20/08/19 04:00 1015.4 24.6 91 0 3.6 50 27.1
20/08/19 04:10 1015.4 24.7 92 0 3.6 47 27.1
20/08/19 04:20 1015.2 24.7 92 0 2.9 57 27.1
20/08/19 04:30 1015.1 24.6 92 0 3.3 56 27.1
20/08/19 04:40 1015.1 24.5 92 0 2.9 51 27.1
20/08/19 04:50 1015.3 24.5 93 0 3.4 43 27
20/08/19 05:00 1015.3 24.6 93 0 3.3 48 27
20/08/19 05:10 1015.4 24.2 90 2 4.7 28 27
20/08/19 05:20 1015.6 24 89 5 4.5 24 27
20/08/19 05:30 1015.5 23.7 87 12 4.8 28 27
20/08/19 05:40 24 4.3 38 27
20/08/19 05:50 41 4 31 27
20/08/19 06:00 1015.7 23.7 89 62 4.2 42 27
20/08/19 06:10 1015.8 23.7 89 90 3.6 36 27
20/08/19 06:20 1015.8 23.7 89 112 3.6 38 27
20/08/19 06:30 1015.7 23.7 88 144 3.5 32 27
20/08/19 06:40 1015.7 23.8 88 171 3.2 44 27
20/08/19 06:50 1015.7 24.2 87 211 3.3 47 27
20/08/19 07:00 1015.7 25 81 240 4 34 27
20/08/19 07:10 1015.9 25.6 77 269 4.2 41 26.9
20/08/19 07:20 294 4 50 26.9
20/08/19 07:30 329 3.9 45 27
20/08/19 07:40 1016.2 26.5 69 361 3.9 36 27
20/08/19 07:50 1016.2 26.8 68 393 4.2 37 27.1
20/08/19 08:00 1016.3 26.9 66 420 3.6 37 27.2
20/08/19 08:10 1016.2 27.1 65 450 4.3 41 27.3
20/08/19 08:20 1016.2 28.4 64 479 3.6 41 27.3
20/08/19 08:30 1016.3 28.2 62 507 4.1 44 27.3
20/08/19 08:40 1016.2 28.8 61 536 4.1 48 27.3
20/08/19 08:50 1016.3 28.8 59 564 4.1 48 27.3
20/08/19 09:00 1016.3 28.3 58 590 4.1 38 27.3
20/08/19 09:10 1016.5 29 57 615 3.6 33 27.3
20/08/19 09:20 1016.5 29.4 56 641 3.8 27 27.3
20/08/19 09:30 1016.5 29.6 55 674 3.8 25 27.3
20/08/19 09:40 1016.6 29.4 53 787 3.8 27 27.4
20/08/19 09:50 1016.6 30.3 54 756 3.8 25 27.4
20/08/19 10:00 1016.6 31 53 723 3.8 29 27.4
20/08/19 10:10 1016.7 30.6 49 743 3.2 32 27.4
20/08/19 10:20 1016.7 30.8 49 768 3.5 25 27.4
20/08/19 10:30 1016.7 30.7 48 776 3.5 20 27.5
20/08/19 10:40 1016.8 31.5 49 791 3.1 34 27.5
20/08/19 10:50 1016.6 32 48 808 2.9 14 27.5
20/08/19 11:00 1016.6 31.9 48 822 2.8 20 27.5
20/08/19 11:10 1016.6 31.6 46 830 2.8 16 27.5
20/08/19 11:20 1016.5 32.3 46 831 2.3 40 27.5
20/08/19 11:30 1016.5 32.3 46 846 3.2 28 27.5
20/08/19 11:40 1016.4 31.9 45 849 2.1 56 27.4
20/08/19 11:50 1016.3 33.3 46 859 2.8 31 27.5
20/08/19 12:00 1016.3 33.1 40 855 1.9 74 27.5
20/08/19 12:10 1016.2 33.8 41 843 2.6 91 27.5
20/08/19 12:20 1016.2 33.2 39 570 2.3 39 27.6
20/08/19 12:30 1016.1 32.8 38 950 2.1 36 27.6
20/08/19 12:40 1016.2 33.6 39 759 2.5 140 27.6
20/08/19 12:50 1016 33.5 38 901 2.9 140 27.6
20/08/19 13:00 1015.9 32.6 38 845 2.7 135 27.6
20/08/19 13:10 1016 33.6 41 841 2.2 144 27.7
20/08/19 13:20 1015.9 32.4 44 819 2.5 159 27.7
20/08/19 13:30 1015.8 31.5 47 808 2.4 169 27.6
20/08/19 13:40 1015.8 30.8 50 916 2.4 162 27.7
20/08/19 13:50 1015.7 30.7 52 813 2.6 160 27.7
20/08/19 14:00 1015.7 31.1 53 549 3.1 152 27.7
20/08/19 14:10 1015.5 30.5 52 732 3.1 144 27.7
20/08/19 14:20 1015.5 30.8 52 705 3.2 144 27.8
20/08/19 14:30 1015.5 30.3 52 680 3 152 27.8
20/08/19 14:40 1015.5 29.9 54 650 2.5 147 27.8
20/08/19 14:50 1015.4 30.5 53 630 2.6 151 27.8
20/08/19 15:00 1015.4 30.3 54 586 2.5 143 27.8
20/08/19 15:10 1015.4 30.1 54 583 2.4 146 27.9
20/08/19 15:20 1015.3 30.3 54 555 2.8 158 27.9
20/08/19 15:30 1015.2 30.5 53 529 3 161 27.9
20/08/19 15:40 1015.2 30.6 53 499 2.4 159 27.9
20/08/19 15:50 1015.2 30.3 54 474 2.9 157 27.9
20/08/19 16:00 1015.2 30.2 53 444 3.5 164 27.9
20/08/19 16:10 1015.1 29.6 53 416 3.7 163 27.9
20/08/19 16:20 1015.1 29.5 53 384 3.3 164 27.9
20/08/19 16:30 1015.1 29.6 54 352 2.9 172 27.9
20/08/19 16:40 1015 29.4 55 322 3.1 165 27.9
20/08/19 16:50 1014.9 29.2 55 290 2.8 166 27.9
20/08/19 17:00 1014.8 29.4 54 259 2.9 161 27.9
20/08/19 17:10 1014.7 29.3 51 229 2.4 159 27.9
20/08/19 17:20 1014.8 29.1 51 199 2.6 158 27.9
20/08/19 17:30 169 2 143 27.9
20/08/19 17:40 140 2.4 155 27.9
20/08/19 17:50 1014.7 28.6 53 114 2.5 160 27.9
20/08/19 18:00 1014.7 28.6 55 87 2.8 156 27.9
20/08/19 18:10 1014.7 28.4 54 63 2.8 155 27.9
20/08/19 18:20 1014.7 28.4 56 42 3.1 159 27.9
20/08/19 18:30 1014.9 28.3 56 30 3.1 156 27.9
20/08/19 18:40 20 3.5 164 27.9
20/08/19 18:50 10 3.5 162 27.9
20/08/19 19:00 1014.8 27.8 62 5 3.1 159 27.8
20/08/19 19:10 1014.7 27.6 63 1 2.6 152 27.8
20/08/19 19:20 1014.7 27.6 63 0 2 152 27.8
20/08/19 19:30 1014.8 27.5 66 1.8 143 27.7
20/08/19 19:40 1015 27.4 64 1.8 150 27.7
20/08/19 19:50 1.8 148 27.7
20/08/19 20:00 1015.3 27.3 67 1.7 157 27.7
20/08/19 20:10 1015.4 27.2 68 1.8 155 27.7
20/08/19 20:20 1015.5 27.2 69 1.7 153 27.7
20/08/19 20:30 1015.5 27.2 69 1.4 153 27.7
20/08/19 20:40 1015.5 27.2 69 1.7 150 27.7
20/08/19 20:50 1015.6 27.3 68 0 1.4 160 27.7
20/08/19 21:00 1015.5 27.3 68 0 1.4 175 27.7
20/08/19 21:10 1015.5 27.1 70 1.3 179 27.7
20/08/19 21:20 1015.3 26.9 74 0 1.4 172 27.7
20/08/19 21:30 1015.3 27 74 1.3 182 27.7
20/08/19 21:40 1015.2 26.9 76 1.9 163 27.8
20/08/19 21:50 1015.3 26.8 78 2.4 161 27.8
20/08/19 22:00 1015.3 26.8 80 0 1.6 146 27.8
20/08/19 22:10 1015.3 26.7 81 1.5 141 27.8
20/08/19 22:20 1.7 144 27.9
20/08/19 22:30 1015.4 26.5 83 0 1.2 141 27.9
20/08/19 22:40 1015.4 26.3 83 0 0.8 81 27.9
20/08/19 22:50 1015.4 26.3 83 0.9 97 27.8
20/08/19 23:00 1015.5 26.3 84 0 0.9 55 27.8
20/08/19 23:10 1015.5 26.2 84 1 38 27.8
20/08/19 23:20 1015.6 26.2 85 0.9 27 27.7
20/08/19 23:30 1015.4 26.1 85 1.6 46 27.7
20/08/19 23:40 1015.4 26.2 85 0 1.5 62 27.7
20/08/19 23:50 1015.3 26.1 85 1.8 46 27.7
21/08/19 00:00 1015.2 26 86 2.2 78 27.7
21/08/19 00:10 1015.3 26.1 86 2 31 27.7
21/08/19 00:20 1015.1 25.7 86 2.4 32 27.7
21/08/19 00:30 1015 25.6 85 3.4 27 27.7
21/08/19 00:40 1014.9 25.4 83 0 3.6 20 27.6
21/08/19 00:50 1014.9 25.5 83 3.8 14 27.6
21/08/19 01:00 1014.8 25.3 80 0 3.9 19 27.6
21/08/19 01:10 1014.8 25.2 79 0 3 37 27.6
21/08/19 01:20 1014.8 25.3 79 3.2 45 27.6
21/08/19 01:30 1014.8 25.4 80 0 3 44 27.6
21/08/19 01:40 1014.9 25.4 81 0 2.6 38 27.6
21/08/19 01:50 1014.7 25.2 82 2.6 44 27.6
21/08/19 02:00 1014.7 25.3 82 2.8 49 27.6
21/08/19 02:10 1014.7 25.3 85 3 63 27.6
21/08/19 02:20 1014.8 25.3 86 3.1 44 27.6
21/08/19 02:30 1014.8 25.2 87 2.8 42 27.6
21/08/19 02:40 1014.8 24.9 85 3.1 36 27.6
21/08/19 02:50 1014.9 24.8 85 0 3.2 28 27.5
21/08/19 03:00 1014.8 24.6 84 0 3.9 34 27.5
21/08/19 03:10 1014.7 24.6 85 0 3.6 53 27.5
21/08/19 03:20 1014.6 24.6 85 0 4 66 27.5
21/08/19 03:30 1014.7 24.6 82 0 3.7 59 27.5
21/08/19 03:40 1014.8 24.9 78 3.1 56 27.5
21/08/19 03:50 1015 24.8 76 2.5 34 27.5
21/08/19 04:00 1014.9 24.7 76 3.3 27 27.5
21/08/19 04:10 1014.9 24.3 79 3.4 31 27.4
21/08/19 04:20 1014.8 23.8 79 2 3.9 8 27.4
21/08/19 04:30 1014.9 23.6 79 0 4.1 22 27.4
21/08/19 04:40 1015 23.7 78 0 4.3 25 27.4
21/08/19 04:50 1015.2 24.2 77 3.5 23 27.4
21/08/19 05:00 1015.3 24.1 75 0 3.6 26 27.3
21/08/19 05:10 1015.4 24 75 3 3.2 37 27.3
21/08/19 05:20 1015.4 23.9 76 6 3.4 34 27.3
21/08/19 05:30 1015.5 24 75 6 3.9 22 27.3
21/08/19 05:40 1015.6 24 74 16 3.4 25 27.3
21/08/19 05:50 1015.6 24 76 42 3.2 29 27.3
21/08/19 06:00 1015.7 24.1 75 47 3.2 38 27.3
21/08/19 06:10 1015.8 24.5 74 68 2.8 21 27.3
21/08/19 06:20 1015.9 24.5 75 54 3.4 21 27.3
21/08/19 06:30 1015.9 24.3 74 58 3.6 19 27.3
21/08/19 06:40 69 3.1 17 27.3
21/08/19 06:50 1016.1 24.6 72 149 3.3 11 27.3
21/08/19 07:00 1016.2 24.8 71 134 3.4 356 27.2
21/08/19 07:10 1016.3 24.8 70 115 3.9 9 27.2
21/08/19 07:20 1016.4 25 68 240 4.2 17 27.2
21/08/19 07:30 1016.4 25 67 201 4.3 18 27.2
21/08/19 07:40 1016.4 25.1 65 185 4.2 9 27.2
21/08/19 07:50 1016.5 25.3 65 178 4.8 15 27.2
21/08/19 08:00 1016.5 25.4 64 184 5.1 19 27.3
21/08/19 08:10 1016.4 25.5 64 216 4.8 19 27.4
21/08/19 08:20 1016.6 25.9 64 290 4.2 17 27.5
21/08/19 08:30 1016.6 26.5 64 270 4.4 22 27.5
21/08/19 08:40 1016.6 27.6 63 609 4.9 22 27.6
21/08/19 08:50 1016.6 28.4 60 637 4.4 21 27.6
21/08/19 09:00 1016.6 28.3 56 288 4.4 24 27.6
21/08/19 09:10 1016.5 27.9 54 332 3.9 28 27.7
21/08/19 09:20 1016.7 29 54 808 3.7 29 27.7
21/08/19 09:30 1016.7 29.6 53 540 3.8 29 27.7
21/08/19 09:40 1016.9 28.5 52 401 4.3 25 27.7
21/08/19 09:50 1016.9 28.4 53 306 4.1 33 27.7
21/08/19 10:00 1016.9 28.9 53 376 3.5 28 27.7
21/08/19 10:10 1016.8 29.8 54 572 3.7 27 27.7
21/08/19 10:20 1016.9 29.7 52 482 3.8 26 27.7
21/08/19 10:30 1016.8 30 51 411 4.1 21 27.7
21/08/19 10:40 1016.8 30.2 50 834 4.4 26 27.7
21/08/19 10:50 1016.8 31.4 49 801 3.6 25 27.7
21/08/19 11:00 1016.9 31.7 46 505 3.3 37 27.7
21/08/19 11:10 1016.8 32.4 45 787 3.9 23 27.7
21/08/19 11:20 1016.8 32.5 43 887 3.6 29 27.7
21/08/19 11:30 1016.8 33.2 42 870 3.4 20 27.7
21/08/19 11:40 1016.7 32.8 41 907 3.3 17 27.7
21/08/19 11:50 1016.7 32.9 41 903 3.7 32 27.7
21/08/19 12:00 1016.7 32.8 42 922 4.1 25 27.7
21/08/19 12:10 1016.7 32.2 42 467 4.3 28 27.7
21/08/19 12:20 1016.6 32 43 977 4.5 22 27.7
21/08/19 12:30 1016.6 32.4 44 806 4 24 27.8
21/08/19 12:40 1016.5 33.6 43 905 4 28 27.7
21/08/19 12:50 1016.6 32.8 43 310 3.8 26 27.7
21/08/19 13:00 1016.5 32 43 688 2.8 132 27.8
21/08/19 13:10 1016.5 32.5 45 1039 2.4 129 27.8
21/08/19 13:20 1016.5 33.6 46 659 2.7 134 27.8
21/08/19 13:30 1016.5 32.2 47 301 2.2 145 27.8
21/08/19 13:40 1016.4 31.8 50 667 3 145 27.8
21/08/19 13:50 1016.4 31 52 352 3.1 140 27.9
21/08/19 14:00 1016.4 30.8 55 905 3.9 126 27.9
21/08/19 14:10 1016.3 31.5 54 816 3.2 130 27.9
21/08/19 14:20 1016.4 31.7 53 562 2.2 141 27.9
21/08/19 14:30 1016.3 32 51 720 2.7 141 27.9
21/08/19 14:40 1016.3 31.9 51 685 3.1 134 27.9
21/08/19 14:50 1016.3 31.6 50 622 3.7 135 27.9
21/08/19 15:00 1016.3 31.1 51 607 3.4 126 27.9
21/08/19 15:10 1016.3 31.2 51 624 3 126 28
21/08/19 15:20 1016.3 31 52 641 2.8 131 28
21/08/19 15:30 1016.2 31 52 272 2.6 132 28
21/08/19 15:40 1016.2 30.8 52 222 2.2 130 28
21/08/19 15:50 1016.2 31.3 52 296 2 123 28
21/08/19 16:00 1016.2 32.3 51 548 2.2 126 28
21/08/19 16:10 1016.2 32.4 50 311 1.8 124 28
21/08/19 16:20 1016.1 31.6 50 346 2 133 28
21/08/19 16:30 1016.1 31.1 50 356 2.3 121 28.1
21/08/19 16:40 1016 31.4 52 304 2.6 93 28.1
21/08/19 16:50 1016 31.2 53 243 3.5 92 28
21/08/19 17:00 199 4 94 28
21/08/19 17:10 226 5 81 28
21/08/19 17:20 1016.2 30.5 56 180 6.2 81 28
21/08/19 17:30 1016.3 29.9 54 149 6.8 76 28
21/08/19 17:40 1016.4 29.7 53 91 9.6 72 28
21/08/19 17:50 92 9.4 64 28
21/08/19 18:00 1016.6 29.1 55 63 8.7 66 28
21/08/19 18:10 44 8.6 51 28
21/08/19 18:20 34 9.1 41 28
21/08/19 18:30 30 8.6 29 28
21/08/19 18:40 22 9.9 24 27.9
21/08/19 18:50 1017.4 25.8 63 13 9.2 33 27.9
21/08/19 19:00 1017.4 25.6 64 7 10 32 27.9
21/08/19 19:10 1017.5 25 64 2 9.3 32 27.9
21/08/19 19:20 1017.6 25 67 0 9 33 27.8
21/08/19 19:30 1017.8 24.7 68 0 8.9 33 27.8
21/08/19 19:40 1017.8 24.6 68 0 8.5 41 27.7
21/08/19 19:50 1017.9 24.6 69 0 8.6 37 27.7
21/08/19 20:00 1018 24.6 69 8 34 27.7
21/08/19 20:10 1018.2 24.6 69 8.2 33 27.6
21/08/19 20:20 1018.5 24.7 69 0 8 26 27.6
21/08/19 20:30 1018.6 24.8 70 0 8.4 28 27.6
21/08/19 20:40 1018.7 24.8 68 0 7.4 34 27.5
21/08/19 20:50 1018.6 25 68 7.9 39 27.6
21/08/19 21:00 1018.7 25.3 68 8.5 44 27.6
21/08/19 21:10 1018.9 25.4 67 0 6.5 50 27.6
21/08/19 21:20 1019 25.3 66 0 7.2 53 27.6
21/08/19 21:30 1019.1 25.4 67 0 7.1 51 27.5
21/08/19 21:40 1019.1 25.3 66 0 6.8 46 27.6
21/08/19 21:50 1019.1 25.2 65 0 7.9 44 27.6
21/08/19 22:00 0 7.3 49 27.6
21/08/19 22:10 1019.1 25.3 65 0 6.4 55 27.5
21/08/19 22:20 0 6.6 57 27.4
21/08/19 22:30 0 6.5 53 27.5
21/08/19 22:40 1019.1 25 65 0 6.7 64 27.6
21/08/19 22:50 1019.2 24.9 65 0 5.3 49 27.6
21/08/19 23:00 1019.1 25 65 0 5.7 47 27.6
21/08/19 23:10 1019.1 25 66 0 5.1 44 27.6
21/08/19 23:20 1019.1 25 67 0 4.5 46 27.6
21/08/19 23:30 1019.2 25 67 0 4.6 61 27.6
21/08/19 23:40 1019.2 24.8 67 0 5.5 56 27.6
21/08/19 23:50 1019 24.7 67 0 4.5 54 27.6
22/08/19 00:00 1018.9 24.8 67 0 5.9 44 27.6
22/08/19 00:10 1019 24.8 67 0 5.8 48 27.6
22/08/19 00:20 1018.9 24.7 66 0 6.2 43 27.6
22/08/19 00:30 1019 24.6 67 0 5.8 43 27.6
22/08/19 00:40 1019 24.7 65 0 6.4 48 27.6
22/08/19 00:50 1018.9 24.2 68 0 6.1 45 27.7
22/08/19 01:00 1019 24 69 0 6 39 27.7
22/08/19 01:10 1018.9 24.2 68 0 6.3 40 27.7
22/08/19 01:20 1019 24 69 0 6 28 27.6
22/08/19 01:30 1018.9 23.7 69 0 5.1 9 27.7
22/08/19 01:40 1018.9 23.6 71 0 6 23 27.6
22/08/19 01:50 1018.6 23.6 70 0 6.2 21 27.6
22/08/19 02:00 1018.6 23.6 69 0 6.3 24 27.6
22/08/19 02:10 1018.6 23.6 69 6 33 27.6
22/08/19 02:20 1018.7 23.3 70 0 6.1 28 27.5
22/08/19 02:30 1018.9 23.1 71 0 5.4 16 27.5
22/08/19 02:40 1018.8 23.3 71 0 5.4 19 27.5
22/08/19 02:50 1018.7 23.3 71 6.5 19 27.5
22/08/19 03:00 1018.7 23.2 70 0 6.9 20 27.5
22/08/19 03:10 1018.7 23.1 70 0 7.1 19 27.4
22/08/19 03:20 1018.6 23 70 0 6.9 22 27.4
22/08/19 03:30 1018.7 23.1 70 0 7.1 26 27.3
22/08/19 03:40 1018.6 23.1 70 0 7.1 22 27.3
22/08/19 03:50 1018.8 22.9 71 0 7.6 21 27.2
22/08/19 04:00 1018.8 22.8 70 0 7 23 27.2
22/08/19 04:10 1018.8 22.8 71 0 6.9 34 27.1
22/08/19 04:20 1018.8 22.6 70 0 5.9 35 27.1
22/08/19 04:30 1018.8 22.7 69 0 6.5 36 27.1
22/08/19 04:40 1018.9 23 69 5.9 45 27.1
22/08/19 04:50 1019 23.3 66 0 5.5 53 27
22/08/19 05:00 1019 23.3 66 0 5.7 52 27
22/08/19 05:10 1019 23.3 65 0 5.6 57 27
22/08/19 05:20 1019 23.3 65 2 6 58 27
22/08/19 05:30 1019 23.3 65 6 5.8 55 27
22/08/19 05:40 1019.2 23.2 65 13 5.5 62 27
22/08/19 05:50 1019.3 23.2 65 21 5.6 54 26.9
22/08/19 06:00 1019.5 23.3 64 30 5.6 45 26.9
22/08/19 06:10 1019.6 23.2 64 37 6.4 43 26.9
22/08/19 06:20 1019.4 23.3 67 51 6.9 30 26.9
22/08/19 06:30 1019.6 22.8 69 63 6.3 34 26.9
22/08/19 06:40 1019.6 22.4 68 79 6.1 25 26.9
22/08/19 06:50 1019.7 22.7 67 76 5.3 33 26.9
22/08/19 07:00 1019.9 22.9 67 75 4.6 45 26.9
22/08/19 07:10 1020.2 23.1 66 74 4.1 54 26.9
22/08/19 07:20 1020.2 23.1 66 48 4.3 38 26.9
22/08/19 07:30 1020.4 23.2 66 32 2.8 44 26.9
22/08/19 07:40 1020.4 23.5 66 33 3.5 35 27
22/08/19 07:50 1020.2 23.4 66 26 4.6 43 26.9
22/08/19 08:00 1019.9 23.1 68 34 5.4 40 26.9
22/08/19 08:10 1020 22.9 67 48 4.1 51 26.9
22/08/19 08:20 1019.8 22.5 69 58 5.1 48 27
22/08/19 08:30 72 4.3 44 27.1
22/08/19 08:40 82 5.8 52 27.1
22/08/19 08:50 1019.1 22.6 72 90 5.8 42 27
22/08/19 09:00 1019.5 22.6 72 116 5.7 38 27
22/08/19 09:10 1019.4 22.4 70 118 7.1 29 27
22/08/19 09:20 1019.8 22.9 70 161 5.4 47 27.2
22/08/19 09:30 1020 23.4 70 224 5.2 28 27.2
22/08/19 09:40 1020.3 24 68 250 5.1 22 27.2
22/08/19 09:50 1020.4 24.1 64 277 5.1 22 27.3
22/08/19 10:00 1020.3 24.4 63 328 4 21 27.3
22/08/19 10:10 1020.3 24.9 61 354 4.1 22 27.4
22/08/19 10:20 1020.3 24.9 59 526 3.9 13 27.3
22/08/19 10:30 1020.2 25.2 57 369 3.6 24 27.4
22/08/19 10:40 1020.1 25.3 55 275 4.1 22 27.4
22/08/19 10:50 1020 24.4 54 214 4.4 30 27.4
22/08/19 11:00 1020.4 24.9 54 241 2.2 33 27.3
22/08/19 11:10 1020.3 25.5 55 313 1.4 41 27.2
22/08/19 11:20 1020 25 53 295 2.9 54 27.3
22/08/19 11:30 1019.9 25 53 273 4 36 27.2
22/08/19 11:40 1020 25.3 53 374 3.1 51 27.2
22/08/19 11:50 1020.1 26.3 53 540 3.4 47 27.2
22/08/19 12:00 1020.1 26.7 51 718 3 53 27.2
22/08/19 12:10 1020.2 26.6 49 298 1.8 97 27.2
22/08/19 12:20 1020.1 26 48 283 2.4 92 27.2
22/08/19 12:30 1020 26.4 50 252 2.2 95 27.2
22/08/19 12:40 1020 25.9 51 250 1.7 84 27.2
22/08/19 12:50 1019.5 25.9 50 214 3.9 26 27.2
22/08/19 13:00 1019.6 26 52 268 2.7 61 27.2
22/08/19 13:10 1019.5 26.4 51 284 3.5 21 27.2
22/08/19 13:20 1019.5 26.3 51 442 3 35 27.2
22/08/19 13:30 1019.6 26 50 324 2.7 39 27.2
22/08/19 13:40 1019.7 25.3 53 284 1.6 59 27.1
22/08/19 13:50 1019.7 25.7 54 306 1 100 27.2
22/08/19 14:00 1019.4 26.2 52 341 1.5 88 27.1
22/08/19 14:10 1019.4 26.8 52 739 0.5 101 27.1
22/08/19 14:20 1019.4 27.7 48 708 1.6 169 27.1
22/08/19 14:30 1019.4 27 48 780 2.2 146 27.1
22/08/19 14:40 1019.1 27.5 47 593 1.5 111 27.1
22/08/19 14:50 1019 27.1 46 213 2.4 66 27.1
22/08/19 15:00 1018.9 26.9 47 319 2 58 27.2
22/08/19 15:10 1018.7 27.4 47 208 2.5 20 27.2
22/08/19 15:20 1018.7 27.4 47 231 1.6 30 27.2
22/08/19 15:30 1018.8 27.5 46 517 1.2 28 27.2
22/08/19 15:40 1018.6 27.8 46 387 2 17 27.2
22/08/19 15:50 1018.6 27.9 46 312 2.6 34 27.2
22/08/19 16:00 1018.6 27.9 44 211 1.8 28 27.3
22/08/19 16:10 1018.5 27.4 45 221 2.5 50 27.3
22/08/19 16:20 1018.5 27.9 45 226 1.7 54 27.3
22/08/19 16:30 1018.3 27.6 46 164 3 60 27.3
22/08/19 16:40 1018.1 27.4 47 153 3.6 24 27.3
22/08/19 16:50 1018.2 27.3 47 116 3.4 35 27.3
22/08/19 17:00 1018.3 27.4 49 113 2.8 92 27.3
22/08/19 17:10 1018.4 27.1 50 97 2.9 117 27.3
22/08/19 17:20 1018.3 26.8 51 87 2.8 99 27.3
22/08/19 17:30 1018.1 26.7 52 77 2.6 72 27.3
22/08/19 17:40 1018.2 26.6 53 54 2.3 78
22/08/19 17:50 1018.6 26.4 51 31 2.1 96 27.2
22/08/19 18:00 1018.7 26.5 51 20 1.7 80 27.2
22/08/19 18:10 19 1.5 56 27.2
22/08/19 18:20 14 1.1 96 27.2
22/08/19 18:30 1018.5 26.2 52 11 0.3 121 27.2
22/08/19 18:40 1018.4 26.2 54 8 0.6 198 27.2
22/08/19 18:50 1018.4 26.1 54 3 0.4 332 27.2
22/08/19 19:00 1018.3 26.3 53 1 1.9 23 27.2
22/08/19 19:10 1018.2 26.2 53 0 1.7 360 27.2
22/08/19 19:20 1018.5 26.1 54 0 0.9 325 27.2
22/08/19 19:30 1018.6 26 54 0 0.7 37 27.1
22/08/19 19:40 0 1.6 347 27.1
22/08/19 19:50 1018.9 26 57 0 0.4 311 27.1
22/08/19 20:00 0 0.1 27.1
22/08/19 20:10 1019.4 25.7 58 0 0.4 66 27
22/08/19 20:20 1019.3 25.7 59 0 0 27
22/08/19 20:30 1019.4 25.7 58 0.2 305 27
22/08/19 20:40 1019.4 26 58 1 345 26.9
22/08/19 20:50 1019.5 25.8 59 0 1.3 274 26.9
22/08/19 21:00 1019.5 25.6 63 0 1.6 265 26.9
22/08/19 21:10 1019.4 25.4 66 0 1.6 272 26.9
22/08/19 21:20 1019.4 25.1 66 0 2.3 270 26.8
22/08/19 21:30 1019.2 25 68 0 2.3 280 26.9
22/08/19 21:40 2 275 26.8
22/08/19 21:50 0 1.8 274 26.9
22/08/19 22:00 0 1.9 277 26.9
22/08/19 22:10 0 2.5 280 27
22/08/19 22:20 1019.1 25.1 68 0 1.9 268 26.9
22/08/19 22:30 1019.1 24.9 67 1.8 283 27
22/08/19 22:40 1019.1 25 66 0 0.9 307 26.9
22/08/19 22:50 1019 24.9 67 1.5 319 26.9
22/08/19 23:00 1019 25 67 0 1.7 326 26.9
22/08/19 23:10 1018.9 25 66 2.4 331 27
22/08/19 23:20 1018.9 24.9 67 0 3.2 344 27
22/08/19 23:30 1019 24.9 67 0 3.2 330 26.9
22/08/19 23:40 1019 24.7 67 0 3.4 332 26.9
22/08/19 23:50 1019 24.6 67 0 3.6 349 27
23/08/19 00:00 1019.1 24.6 68 0 3.7 345 27
23/08/19 00:10 1019.3 24.7 70 0 3.3 347 27
23/08/19 00:20 1019.5 24.6 70 0 1.9 329 27
23/08/19 00:30 1019.6 24.5 70 0 2.4 14 27
23/08/19 00:40 0 2.7 25 27.1
23/08/19 00:50 1019.9 24.1 71 0 2.1 65 27.1
23/08/19 01:00 1019.8 23.9 72 0 2.7 59 27
23/08/19 01:10 1019.7 23.6 74 2.6 59 27
23/08/19 01:20 1019.9 23.5 75 0 2.6 77 27
23/08/19 01:30 1019.7 23.3 73 2.6 73 27
23/08/19 01:40 1019.7 22.8 75 0 2.7 63 27
23/08/19 01:50 1019.5 22.6 79 3.7 45 27
23/08/19 02:00 1019.3 22.5 80 4.8 14 26.8
23/08/19 02:10 1019.1 22.5 80 5.2 16 26.8
23/08/19 02:20 1019.3 22.2 80 4.6 23 26.8
23/08/19 02:30 1019.3 22.2 83 5.3 28 26.8
23/08/19 02:40 1018.8 22.1 83 8.5 19 26.8
23/08/19 02:50 1018.7 22.2 81 9.3 17 26.9
23/08/19 03:00 1018.8 22 82 7.9 24 26.8
23/08/19 03:10 1018.9 21.9 81 8.2 22 26.9
23/08/19 03:20 1018.7 22.3 80 8.9 21 26.9
23/08/19 03:30 1018.5 22.4 77 0 8.8 26 26.9
23/08/19 03:40 1018.9 22.5 76 1 5.9 64 26.8
23/08/19 03:50 1018.8 22.3 79 0 6.3 42 26.8
23/08/19 04:00 0 5.5 41 26.7
23/08/19 04:10 5 50 26.6
23/08/19 04:20 1018.7 22.6 80 0 5.9 36 26.5
23/08/19 04:30 1018.9 22.4 79 0 6 28 26.5
23/08/19 04:40 1019 22.2 78 0 6.5 26 26.5
23/08/19 04:50 0 7 25 26.2
23/08/19 05:00 0 5.6 31 26.3
23/08/19 05:10 0 4.7 33 26.2
23/08/19 05:20 1019.5 22.2 79 1 4.3 35 26.3
23/08/19 05:30 1019.6 22.2 79 4 4.1 33 26.3
23/08/19 05:40 1019.6 22.4 79 11 5.3 15 26.3
23/08/19 05:50 1019.7 22.2 79 20 4.4 9 26.3
23/08/19 06:00 32 4.3 359 26.3
23/08/19 06:10 1019.6 22.5 77 47 4.7 22 26.3
23/08/19 06:20 80 3.9 18 26.4
23/08/19 06:30 1019.6 22.6 77 117 4 18 26.4
23/08/19 06:40 1019.5 22.8 77 148 3.7 18 26.4
23/08/19 06:50 1019.6 22.7 77 155 4 10 26.4
23/08/19 07:00 1019.6 23 76 195 3.1 27 26.4
23/08/19 07:10 1019.5 23.6 75 266 5 15 26.4
23/08/19 07:20 1019.4 23.6 74 150 4.9 21 26.4
23/08/19 07:30 1019.5 23.6 74 257 5 27 26.4
23/08/19 07:40 1019.7 24.5 73 293 3.8 29 26.4
23/08/19 07:50 1019.8 24.8 71 239 3.8 31 26.4
23/08/19 08:00 1019.9 24.4 71 169 3.6 58 26.5
23/08/19 08:10 1019.9 24.5 70 178 4.7 45 26.5
23/08/19 08:20 1019.9 24.3 71 177 3.9 47 26.6
23/08/19 08:30 1020.1 24.5 71 206 3.1 37 26.7
23/08/19 08:40 1020.3 24.8 71 184 2.8 46 26.7
23/08/19 08:50 1020.5 24.8 70 193 2.2 50 26.8
23/08/19 09:00 1020.6 25.2 70 165 1.5 54 26.9
23/08/19 09:10 1020.8 25.2 69 137 1.1 46 26.9
23/08/19 09:20 1021.2 25 67 93 1.4 145 26.9
23/08/19 09:30 1021.3 24.9 67 101 1.1 161 26.9
23/08/19 09:40 1021.3 24.8 68 77 0.2 201 26.9
23/08/19 09:50 1021.3 24.9 68 62 0.5 267 26.8
23/08/19 10:00 1021.2 25 69 57 0.5 296 26.8
23/08/19 10:10 1021.2 24.9 68 52 0.7 232 26.8
23/08/19 10:20 1021.2 25 69 50 0.8 235 26.8
23/08/19 10:30 1021.1 24.8 71 54 1.3 272 26.8
23/08/19 10:40 1020.8 24.7 74 63 2.6 305 26.8
23/08/19 10:50 1020.8 24.5 76 80 2.2 303 26.8
23/08/19 11:00 1021 24.5 76 124 1.5 348 26.8
23/08/19 11:10 1020.8 24.8 75 122 3 5 26.8
23/08/19 11:20 1020.5 24.6 73 60 4.1 15 26.8
23/08/19 11:30 1019.6 24.5 76 59 7 350 26.8
23/08/19 11:40 1018.6 23.8 78 96 9 1 26.8
23/08/19 11:50 1019.2 24.2 79 206 8.2 14 26.8
23/08/19 12:00 1019.5 24.5 79 345 6.4 21 26.8
23/08/19 12:10 1019.6 25.3 79 514 5.2 16 26.8
23/08/19 12:20 1019.7 26.1 78 533 4.7 7 26.8
23/08/19 12:30 1019.8 26.5 75 410 3.9 353 26.9
23/08/19 12:40 1019.9 26.3 73 371 4.1 346 26.9
23/08/19 12:50 1019.8 26.2 72 328 4.8 352 26.9
23/08/19 13:00 1019.9 26.5 72 293 2.9 333 26.8
23/08/19 13:10 1019.9 26.5 71 274 3 342 26.7
23/08/19 13:20 1020 26.5 70 273 1.8 346 26.7
23/08/19 13:30 1020.1 26.8 70 278 1.7 44 26.7
23/08/19 13:40 1020.1 26.9 69 263 1.9 68 26.7
23/08/19 13:50 1020.1 27 68 265 1.2 80 26.8
23/08/19 14:00 1020 27.2 67 280 1.5 109 26.8
23/08/19 14:10 1020 27.2 67 266 1.4 95 26.7
23/08/19 14:20 1020 27.3 66 231 1.1 98 26.7
23/08/19 14:30 1019.8 27.5 65 212 1.1 61 26.8
23/08/19 14:40 1019.7 27.4 64 191 3.4 54 26.8
23/08/19 14:50 1019.5 27.2 63 174 2.8 54 26.8
23/08/19 15:00 1019.3 27.1 63 173 2.3 91 26.8
23/08/19 15:10 1019.1 27 65 176 2.3 76 26.8
23/08/19 15:20 1019.1 26.8 66 192 2.3 83 26.8
23/08/19 15:30 1018.9 26.8 67 221 2.2 58 26.8
23/08/19 15:40 1018.7 27 67 286 2.7 37 26.8
23/08/19 15:50 1018.5 27 67 285 3.7 23 26.8
23/08/19 16:00 1018.5 27.3 66 359 3.8 31 26.8
23/08/19 16:10 1018.2 27.2 65 213 5.7 23 26.8
23/08/19 16:20 1018.3 26.8 64 222 4.1 32 26.8
23/08/19 16:30 1018.4 27.1 66 186 3.8 48 26.8
23/08/19 16:40 1018.6 26.8 67 169 3.3 59 26.8
23/08/19 16:50 1018.5 26.9 67 137 3.2 52 26.8
23/08/19 17:00 1018.6 26.9 68 100 2.6 52 26.8
23/08/19 17:10 1018.5 26.7 69 122 2.3 47 26.8
23/08/19 17:20 1018.6 26.8 69 137 1.9 67 26.8
23/08/19 17:30 1018.8 26.8 70 117 0.9 113 26.9
23/08/19 17:40 1018.9 26.8 70 115 0.2 26.9
23/08/19 17:50 1018.7 26.8 70 111 1.5 17 26.9
23/08/19 18:00 1018.7 26.7 69 80 1.8 24 26.8
23/08/19 18:10 1018.7 26.6 67 56 1.7 32 26.8
23/08/19 18:20 1018.8 26.5 68 37 1.7 32 26.8
23/08/19 18:30 1018.6 26.5 71 26 1.9 26 26.8
23/08/19 18:40 1018.5 26.3 71 18 2.1 17 26.8
23/08/19 18:50 1018.6 26.1 71 10 1.2 5 26.8
23/08/19 19:00 1018.8 25.9 70 4 1.7 357 26.8
23/08/19 19:10 1018.8 25.9 71 0 2 10 26.7
23/08/19 19:20 1018.8 25.7 72 0 2.5 12 26.7
23/08/19 19:30 1018.8 25.7 73 0 2.3 3 26.6
23/08/19 19:40 1019 25.5 73 0 2.6 353 26.6
23/08/19 19:50 1019.1 25.3 73 3 6 26.6
23/08/19 20:00 1019.1 25.3 74 0 2.7 9 26.6
23/08/19 20:10 1019.1 25.1 76 2.1 11 26.5
23/08/19 20:20 1019.1 25 76 0 2.1 6 26.5
23/08/19 20:30 1019.1 24.9 77 0 2.5 15 26.5
23/08/19 20:40 1019.1 24.9 77 0 2.8 11 26.5
23/08/19 20:50 1019 24.9 77 0 3.3 1 26.4
23/08/19 21:00 1019.1 24.8 77 0 2.6 1 26.4
23/08/19 21:10 1019.1 24.7 78 0 2.6 3 26.4
23/08/19 21:20 1019.1 24.5 78 0 3.1 12 26.3
23/08/19 21:30 1019.1 24.5 78 0 3.4 25 26.3
23/08/19 21:40 1019.2 24.3 78 3.8 22 26.3
23/08/19 21:50 1019.1 24.2 77 0 3.8 27 26.2
23/08/19 22:00 1019 24.3 76 0 3.4 24 26.2
23/08/19 22:10 1019 24.3 77 2.8 17 26.2
23/08/19 22:20 1018.9 24.2 77 0 3.8 20 26.1
23/08/19 22:30 1018.9 24.2 77 0 3.4 15 26.1
23/08/19 22:40 1018.8 24.1 77 3.9 15 26.1
23/08/19 22:50 1018.8 24.1 76 3.6 12 26
23/08/19 23:00 1018.8 24.1 76 3.8 13 26
23/08/19 23:10 1018.9 24.2 75 0 4.4 21 26.1
23/08/19 23:20 1018.9 23.9 75 0 4.1 22 26
23/08/19 23:30 1018.9 23.8 74 0 3.9 31 26.2
23/08/19 23:40 1018.8 23.7 74 0 4.5 25 26.2
23/08/19 23:50 1018.7 23.9 75 0 4.6 21 26.2
24/08/19 00:00 1018.6 23.8 75 0 5.3 20 26.2
24/08/19 00:10 1018.5 23.8 75 0 4.7 20 26.4
24/08/19 00:20 1018.4 23.5 75 0 5.2 18 26.4
24/08/19 00:30 1018.4 23.6 76 0 4.9 17 26.5
24/08/19 00:40 1018.3 23.5 76 0 4.9 15 26.5
24/08/19 00:50 1018.3 23.4 76 0 4.9 22 26.4
24/08/19 01:00 1018.3 23.5 75 0 4.5 24 26.5
24/08/19 01:10 1018.2 23.4 76 0 4.9 22 26.4
24/08/19 01:20 1018.2 23.4 76 0 4.5 23 26.5
24/08/19 01:30 1018.2 23.6 74 0 4.9 23 26.6
24/08/19 01:40 1018.2 23.6 75 0 4.7 21 26.6
24/08/19 01:50 1018.2 23.5 75 0 5 22 26.6
24/08/19 02:00 1018.2 23.5 75 0 4.8 21 26.6
24/08/19 02:10 1018.2 23.5 75 0 4.5 22 26.6
24/08/19 02:20 1018 23.5 75 0 4.6 19 26.6
24/08/19 02:30 1018 23.5 76 0 4.8 23 26.6
24/08/19 02:40 1018 23.5 75 0 4.2 27 26.5
24/08/19 02:50 1017.9 23.6 74 0 4.9 24 26.5
24/08/19 03:00 1017.9 23.7 74 0 4.8 26 26.3
24/08/19 03:10 1017.9 23.5 74 0 4.9 27 26.3
24/08/19 03:20 1017.8 23.3 75 0 4.3 27 26.3
24/08/19 03:30 1017.7 23.3 75 0 4.6 33 26.3
24/08/19 03:40 1017.6 23.3 75 0 4.6 26 26.4
24/08/19 03:50 1017.6 23.3 75 0 5 24 26.2
24/08/19 04:00 1017.7 23.2 75 0 5 21 26.2
24/08/19 04:10 1017.8 23.1 75 0 4.6 26 26.1
24/08/19 04:20 1017.7 23.1 75 0 4.8 28 26
24/08/19 04:30 1017.8 23.2 75 0 5.1 23 26.2
24/08/19 04:40 1017.7 23.1 76 0 4.7 23 26.1
24/08/19 04:50 1017.7 23.1 76 0 4.3 23 26.2
24/08/19 05:00 1017.7 23 76 0 4 21 26
24/08/19 05:10 1017.7 23.2 76 0 5.3 20 26.1
24/08/19 05:20 1017.7 23.2 75 1 5.8 23 26.1
24/08/19 05:30 1017.8 23 76 5 5.5 24 26
24/08/19 05:40 1017.8 23.2 75 10 4.7 25 26
24/08/19 05:50 1017.9 23.5 75 15 4.7 25 26.2
24/08/19 06:00 1017.7 23.5 74 22 4.5 26 26.1
24/08/19 06:10 1017.7 23.5 75 43 5.1 29 26.2
24/08/19 06:20 1017.8 23.6 74 52 4.4 24 26.1
24/08/19 06:30 1017.8 23.8 73 65 4.7 26 26.2
24/08/19 06:40 1017.8 23.9 72 81 4.6 25 26.2
24/08/19 06:50 1017.8 23.9 72 99 4.8 23 26.3
24/08/19 07:00 1017.8 23.8 72 123 5.4 24 26.1
24/08/19 07:10 1017.8 24 72 143 4.3 23 26.2
24/08/19 07:20 1017.8 24.3 71 253 3.2 18 26.1
24/08/19 07:30 1017.8 25.1 71 288 3.4 16 26.2
24/08/19 07:40 1017.8 25 69 305 4.7 17 26.2
24/08/19 07:50 1017.7 25.5 68 351 4.8 18 26.3
24/08/19 08:00 1017.7 26 66 395 5.1 18 26.3
24/08/19 08:10 1017.7 26.1 66 427 4.4 19 26.3
24/08/19 08:20 1017.7 26 65 233 4 18 26.2
24/08/19 08:30 1017.7 25.6 65 245 2.9 0 26.2
24/08/19 08:40 1017.8 25.8 66 252 3.6 2 26.3
24/08/19 08:50 1017.7 26.7 66 559 2.7 2 26.2
24/08/19 09:00 1017.7 27.5 64 486 3.9 12 26.3
24/08/19 09:10 1017.8 27.9 62 576 3.6 14 26.3
24/08/19 09:20 1017.8 28.1 60 570 4.5 19 26.2
24/08/19 09:30 1017.8 28.3 59 580 3.8 12 26.3
24/08/19 09:40 1017.8 28.7 58 376 3.6 16 26.3
24/08/19 09:50 1017.8 29.3 57 599 3.2 26 26.3
24/08/19 10:00 1017.8 29.5 56 630 3.4 18 26.3
24/08/19 10:10 1017.7 29.6 55 692 3.4 26 26.3
24/08/19 10:20 1017.7 29.6 54 645 4.1 22 26.3
24/08/19 10:30 1017.7 30 53 682 3.7 22 26.3
24/08/19 10:40 1017.7 30.3 51 746 3.8 25 26.3
24/08/19 10:50 1017.7 30.5 50 737 3.4 16 26.3
24/08/19 11:00 1017.6 30.9 49 765 3.1 19 26.3
24/08/19 11:10 1017.5 30.8 49 775 1.9 17 26.3
24/08/19 11:20 1017.4 30.7 48 782 2.3 37 26.3
24/08/19 11:30 1017.4 30.9 48 471 3.4 33 26.3
24/08/19 11:40 1017.3 30.9 47 856 3.3 49 26.3
24/08/19 11:50 1017.3 31.1 46 634 3.2 62 26.3
24/08/19 12:00 1017.2 31.7 47 865 2.7 49 26.3
24/08/19 12:10 1017.2 31.6 46 816 2.7 34 26.4
24/08/19 12:20 1017.1 30.8 45 892 3.4 36 26.4
24/08/19 12:30 1017 32 46 755 3.6 63 26.3
24/08/19 12:40 1016.9 31.5 46 426 2.5 92 26.3
24/08/19 12:50 1016.8 30.8 46 875 2.6 139 26.3
24/08/19 13:00 1016.7 31 47 331 2.6 161 26.3
24/08/19 13:10 1016.7 29.8 51 800 3.1 167 26.4
24/08/19 13:20 1016.6 29 53 325 3.6 168 26.4
24/08/19 13:30 1016.4 28.8 56 422 3.1 177 26.3
24/08/19 13:40 1016.3 28.8 57 477 3 182 26.4
24/08/19 13:50 1016.2 29.1 57 790 3.4 186 26.4
24/08/19 14:00 1016.2 28.9 55 706 3 194 26.5
24/08/19 14:10 1016.2 29.2 56 713 3 191 26.5
24/08/19 14:20 1016.1 29.7 56 697 1.9 191 26.5
24/08/19 14:30 1016 29.8 54 644 1.6 189 26.4
24/08/19 14:40 1016 30.3 55 399 1.2 191 26.4
24/08/19 14:50 1016 29.7 54 629 2.3 183 26.5
24/08/19 15:00 1016 29.2 54 652 2 189 26.5
24/08/19 15:10 1015.9 30.3 54 555 2.1 186 26.5
24/08/19 15:20 1015.7 30.5 54 518 2 190 26.5
24/08/19 15:30 1015.6 29.9 57 482 1.6 191 26.6
24/08/19 15:40 1015.6 30.3 56 444 1.6 195 26.6
24/08/19 15:50 1015.4 29.9 57 418 1.8 223 26.6
24/08/19 16:00 1015.3 29.8 56 392 1.5 210 26.6
24/08/19 16:10 1015.4 30.3 57 367 2.2 190 26.6
24/08/19 16:20 1015.5 29.5 57 336 2.1 176 26.6
24/08/19 16:30 1015.6 29.4 57 306 2.6 180 26.6
24/08/19 16:40 1015.6 29 60 278 2.7 184 26.7
24/08/19 16:50 1015.6 28.9 62 280 2.6 189 26.7
24/08/19 17:00 1015.9 28.6 59 80 0.8 186 26.7
24/08/19 17:10 1016.2 28.9 61 114 0 26.7
24/08/19 17:20 1016.6 25.9 54 201 12.2 20 26.7
24/08/19 17:30 1016.3 25.2 59 89 9.8 19 26.7
24/08/19 17:40 1016.4 25.2 62 58 9 10 26.6
24/08/19 17:50 1016 25 60 43 7.1 2 26.6
24/08/19 18:00 1015.8 24.6 63 34 5.3 350 26.6
24/08/19 18:10 1015.9 24.7 63 25 6.1 344 26.6
24/08/19 18:20 1016.1 25.4 62 15 5.9 344 26.6
24/08/19 18:30 1016.1 25.4 61 10 4.8 331 26.6
24/08/19 18:40 1016 25.5 62 8 4.6 347 26.6
24/08/19 18:50 1016.1 25.3 62 5 4.8 358 26.6
24/08/19 19:00 1016 25 63 3 4.9 356 26.6
24/08/19 19:10 1016 24.8 65 0 4.6 19 26.6
24/08/19 19:20 1016 24.9 62 0 4.1 26 26.6
24/08/19 19:30 1016 24.9 63 0 4.6 29 26.5
24/08/19 19:40 1016.3 24.8 64 0 3.9 37 26.6
24/08/19 19:50 1016.3 24.5 66 0 5.6 48 26.5
24/08/19 20:00 1016.4 24.3 67 0 4.9 45 26.5
24/08/19 20:10 1016.4 24.2 68 0 4.4 50 26.5
24/08/19 20:20 1016.3 24.4 71 0 4 53 26.5
24/08/19 20:30 1016.5 24.4 71 0 4.1 46 26.5
24/08/19 20:40 1016.6 24.2 70 0 4.3 27 26.5
24/08/19 20:50 1016.8 24 73 0 4.4 37 26.4
24/08/19 21:00 1016.8 23.8 73 1 4.8 13 26.4
24/08/19 21:10 1016.9 23.5 73 0 4.7 20 26.4
24/08/19 21:20 1017 23.6 74 0 4.7 8 26.4
24/08/19 21:30 1017 23.5 74 0 5.1 13 26.4
24/08/19 21:40 1017.1 23.6 75 0 3.6 4 26.3
24/08/19 21:50 1017.1 23.5 76 0 4 15 26.3
24/08/19 22:00 1017.1 23.6 76 0 3.7 8 26.3
24/08/19 22:10 1016.9 23.7 76 0 4.1 13 26.3
24/08/19 22:20 1017 23.7 76 0 4 19 26.2
24/08/19 22:30 1016.9 23.8 76 0 4.1 11 26.2
24/08/19 22:40 1017 24 76 0 3.1 9 26.2
24/08/19 22:50 1017.2 24.1 75 2.7 357 26.2
24/08/19 23:00 1017.2 24 72 0 4.5 343 26.1
24/08/19 23:10 1017.2 24.1 69 3.9 352 26.2
24/08/19 23:20 1017.3 24.1 68 0 6.8 351 26.1
24/08/19 23:30 1017.5 23.4 68 5 8.3 341 26.1
24/08/19 23:40 1017.1 23.1 73 1 8.2 6 26
24/08/19 23:50 1016.7 23 73 0 6.5 20 26
25/08/19 00:00 1016.6 23.5 69 6.5 21 26
25/08/19 00:10 1016.6 24 66 5.4 16 26
25/08/19 00:20 1016.5 24 70 1 5.1 10 25.9
25/08/19 00:30 1016.5 23.6 73 1 4.4 1 26
25/08/19 00:40 1016.6 23.5 72 0 5.1 17 26
25/08/19 00:50 1016.5 23.4 73 0 4 349 26
25/08/19 01:00 1016.3 23 73 0 4.1 353 26
25/08/19 01:10 1016.3 23.1 74 0 3.4 357 26
25/08/19 01:20 1016.2 23.2 75 0 2.6 33 26.1
25/08/19 01:30 1016.2 23.1 77 3.4 18 26.1
25/08/19 01:40 1016.1 23.1 77 0 3.4 357 26.1
25/08/19 01:50 1016.1 23.1 78 0 3.2 6 26.2
25/08/19 02:00 1016 22.7 78 0 3.3 349 26.2
25/08/19 02:10 1015.9 22.8 78 4.7 2 26.1
25/08/19 02:20 1015.8 22.8 79 4.4 24 26.1
25/08/19 02:30 1015.9 22.9 73 4.3 38 26.1
25/08/19 02:40 1015.8 23.3 72 4.5 33 26.1
25/08/19 02:50 1015.8 23.3 71 4.1 29 26.2
25/08/19 03:00 1015.8 23.4 71 0 3.6 32 26.1
25/08/19 03:10 1015.8 23.3 72 0 3.8 31 26
25/08/19 03:20 1015.8 23.2 75 0 4.7 11 26
25/08/19 03:30 1015.7 22.7 76 1 4.2 2 26.1
25/08/19 03:40 1015.7 22.5 77 0 3.9 18 26.1
25/08/19 03:50 1015.7 22.6 79 0 4 14 26.1
25/08/19 04:00 1015.7 22.5 80 0 2.9 356 26.1
25/08/19 04:10 1015.7 22.4 80 2.3 349 26.1
25/08/19 04:20 1015.7 22.4 80 0 1.5 324 26.2
25/08/19 04:30 1015.7 22.4 79 2.1 332 26.2
25/08/19 04:40 1015.9 22.4 79 2 354 26.1
25/08/19 04:50 1016 22.4 78 0 2.1 343 26.2
25/08/19 05:00 1016 22.5 78 0 2.1 351 26.1
25/08/19 05:10 1015.9 22.5 78 0 2.7 354 26.1
25/08/19 05:20 1016 22.4 78 1 2.8 342 26.1
25/08/19 05:30 1016 22.5 78 7 2.5 349 26.1
25/08/19 05:40 1016 22.5 78 17 2.9 348 26
25/08/19 05:50 1016.1 22.5 76 30 3.1 352 26
25/08/19 06:00 1016.1 22.6 75 58 3.5 347 25.9
25/08/19 06:10 1016.1 22.7 74 92 3.8 348 26
25/08/19 06:20 1016.3 22.7 74 129 4 4 25.9
25/08/19 06:30 1016.3 23 75 170 3.2 4 25.9
25/08/19 06:40 1016.2 23.3 75 210 3.9 2 25.9
25/08/19 06:50 1016.2 23.2 74 253 3.5 355 26
25/08/19 07:00 1016.3 23.7 74 289 3.3 344 26
25/08/19 07:10 1016.4 24.4 73 321 3.5 354 26
25/08/19 07:20 1016.3 24.5 71 323 4.1 348 26
25/08/19 07:30 1016.3 24.8 69 336 4.6 350 26
25/08/19 07:40 1016.3 25.2 66 366 4.1 359 26.1
25/08/19 07:50 1016.4 25.4 65 397 4.7 0 26
25/08/19 08:00 1016.5 25.5 63 488 4.8 14 26.1
25/08/19 08:10 1016.5 26.1 60 540 3.3 16 26.1
25/08/19 08:20 1016.6 25.9 57 371 4.1 19 26.1
25/08/19 08:30 1016.6 25.9 58 615 3 352 26.2
25/08/19 08:40 1016.7 26.8 58 644 4.3 18 26.1
25/08/19 08:50 1016.8 26.9 57 655 3.9 28 26.1
25/08/19 09:00 1016.9 27.1 56 667 3.4 16 26.1
25/08/19 09:10 1017 27.5 54 676 3.7 21 26.1
25/08/19 09:20 1017 27.3 55 632 3.5 15 26.2
25/08/19 09:30 1017 26.9 54 419 3.6 10 26.2
25/08/19 09:40 1017 27 54 574 2.6 349 26.2
25/08/19 09:50 1017.1 27.5 54 516 3.2 13 26.1
25/08/19 10:00 1017 28.2 54 926 3.9 22 26.2
25/08/19 10:10 1016.9 28.6 53 665 3.8 21 26.2
25/08/19 10:20 1016.9 28.2 52 992 3.1 9 26.2
25/08/19 10:30 1016.9 29.5 51 946 3.7 29 26.3
25/08/19 10:40 1016.8 29.6 49 843 3.9 22 26.3
25/08/19 10:50 1016.8 30 48 816 2.7 30 26.3
25/08/19 11:00 1016.7 29.9 47 826 3.4 43 26.3
25/08/19 11:10 1016.7 30.1 46 849 2.8 20 26.3
25/08/19 11:20 1016.6 30.7 46 877 2.9 23 26.3
25/08/19 11:30 1016.6 31 45 900 3 37 26.3
25/08/19 11:40 1016.6 31.3 44 925 1.5 43 26.4
25/08/19 11:50 1016.5 31.4 43 929 2.6 41 26.4
25/08/19 12:00 1016.4 30.9 44 896 3.1 33 26.4
25/08/19 12:10 1016.3 30.3 44 902 3 38 26.4
25/08/19 12:20 1016.3 31.2 43 747 2.8 38 26.4
25/08/19 12:30 1016.2 31.2 42 914 2.7 42 26.5
25/08/19 12:40 1016.1 31.4 42 903 3.1 32 26.5
25/08/19 12:50 1016.1 31.9 41 875 2.9 37 26.5
25/08/19 13:00 1016.1 31.7 40 705 2.5 48 26.6
25/08/19 13:10 1016.1 31.6 40 666 2.6 12 26.6
25/08/19 13:20 1016.1 31.2 40 749 2.4 25 26.6
25/08/19 13:30 1016 31 41 643 2.1 136 26.7
25/08/19 13:40 1015.9 31 41 295 2.9 148 26.6
25/08/19 13:50 1015.8 30 46 623 2.3 156 26.7
25/08/19 14:00 1015.8 30.1 47 654 2.1 163 26.6
25/08/19 14:10 1015.7 29.8 47 749 3.1 183 26.6
25/08/19 14:20 1015.6 30.1 48 723 3 181 26.6
25/08/19 14:30 1015.5 30.1 48 693 2.4 190 26.6
25/08/19 14:40 1015.4 29.5 48 631 2.4 185 26.6
25/08/19 14:50 1015.3 30 49 627 2.1 185 26.6
25/08/19 15:00 1015.3 30.1 49 463 2 188 26.6
25/08/19 15:10 1015.2 30 50 573 1.8 177 26.6
25/08/19 15:20 1015.2 30.4 51 422 1.9 178 26.6
25/08/19 15:30 1015.3 30 51 514 1.8 182 26.6
25/08/19 15:40 1015.3 29.4 51 342 2.5 159 26.6
25/08/19 15:50 1015.2 29.1 53 313 1.8 165 26.5
25/08/19 16:00 1015.1 29.6 54 431 1.3 177 26.5
25/08/19 16:10 1015.1 30 52 386 1.7 189 26.5
25/08/19 16:20 1015.1 29.7 51 345 1.3 205 26.6
25/08/19 16:30 1015.1 30.3 50 307 0.9 245 26.6
25/08/19 16:40 1015.1 30.8 48 279 0.7 186 26.6
25/08/19 16:50 1015.1 30.8 47 249 0.9 191 26.6
25/08/19 17:00 1015 30.7 46 222 0.2 26.6
25/08/19 17:10 1015 30.8 46 191 0.7 206 26.6
25/08/19 17:20 1015 30.3 47 161 0.4 273 26.6
25/08/19 17:30 1015.1 30.1 47 135 0.6 21 26.6
25/08/19 17:40 1015.1 30 47 113 0.9 17 26.6
25/08/19 17:50 1015.1 29.8 47 88 0.9 358 26.6
25/08/19 18:00 1015.2 29.8 47 67 0.9 28 26.6
25/08/19 18:10 1015.2 29.6 47 50 1.3 8 26.6
25/08/19 18:20 1015.2 29.4 48 37 1.4 17 26.6
25/08/19 18:30 1015.3 29.3 48 24 1.6 16 26.6
25/08/19 18:40 1015.4 29.2 49 15 1.6 10 26.6
25/08/19 18:50 1015.4 29.1 51 7 1.5 8 26.6
25/08/19 19:00 1015.6 28.9 53 2 1 356 26.6
25/08/19 19:10 1015.6 28.7 55 0 1.4 358 26.6
25/08/19 19:20 1015.7 28.7 55 0 1.1 2 26.6
25/08/19 19:30 1015.9 28.7 57 1.6 3 26.6
25/08/19 19:40 1016 28.5 59 1.2 10 26.5
25/08/19 19:50 1016.1 28.3 61 0 1.1 357 26.6
25/08/19 20:00 1016.1 28.1 62 0 0.5 107 26.5
25/08/19 20:10 1016.2 28.1 62 0 0.9 141 26.5
25/08/19 20:20 1016.2 28 61 0 0.4 135 26.5
25/08/19 20:30 1016.2 27.9 60 0.7 127 26.5
25/08/19 20:40 1016.1 27.9 60 0 0.4 98 26.5
25/08/19 20:50 1016.2 27.8 60 0 0 26.5
25/08/19 21:00 1016.2 27.5 61 0 0 26.6
25/08/19 21:10 1016.3 27.3 62 0 26.6
25/08/19 21:20 1016.2 27.2 65 0.4 26.6
25/08/19 21:30 1016.2 27.3 67 1 7 26.6
25/08/19 21:40 1016.3 27.1 66 2 4 26.6
25/08/19 21:50 1016.3 26.9 64 1.8 16 26.6
25/08/19 22:00 1016.4 26.9 64 2.4 29 26.5
25/08/19 22:10 1016.4 26.8 62 3.2 32 26.5
25/08/19 22:20 1016.5 26.7 64 0 3.3 34 26.5
25/08/19 22:30 1016.5 26.6 65 0 2.4 17 26.5
25/08/19 22:40 1016.5 26.5 65 0 2.7 23 26.5
25/08/19 22:50 1016.5 26.5 67 3 22 26.5
25/08/19 23:00 1016.4 26.4 68 0 3.5 26 26.4
25/08/19 23:10 1016.4 26.2 71 0 3.1 37 26.4
25/08/19 23:20 1016.4 26.3 71 0 3 51 26.4
25/08/19 23:30 1016.4 26.3 71 0 3 49 26.4
25/08/19 23:40 1016.3 26.2 73 0 3.5 55 26.4
25/08/19 23:50 1016.4 26.1 71 0 3.7 48 26.4
26/08/19 00:00 1016.4 26 72 0 3.3 48 26.4
26/08/19 00:10 1016.3 25.8 71 0 4 38 26.4
26/08/19 00:20 1016.3 25.6 72 1 4.7 30 26.3
26/08/19 00:30 1016.3 24.9 72 1 5 20 26.3
26/08/19 00:40 1016.3 24.7 74 0 4.8 14 26.3
26/08/19 00:50 1016.3 24.6 74 0 4.1 18 26.3
26/08/19 01:00 1016.2 24.3 74 0 4.7 18 26.3
26/08/19 01:10 1016.2 24.1 75 0 4.6 25 26.3
26/08/19 01:20 1016.1 24.1 75 4.7 23 26.3
26/08/19 01:30 1016.1 24 75 0 4.7 20 26.3
26/08/19 01:40 1016 23.9 75 0 4.5 20 26.3
26/08/19 01:50 1016 23.8 75 0 4.5 26 26.3
26/08/19 02:00 1016 23.8 75 0 4.6 27 26.3
26/08/19 02:10 1016 23.8 76 0 5 23 26.3
26/08/19 02:20 1016 23.9 76 4.7 21 26.3
26/08/19 02:30 1016 23.8 76 5 25 26.3
26/08/19 02:40 1016 23.9 75 0 5.1 26 26.3
26/08/19 02:50 1015.9 23.9 75 0 4.9 23 26.3
26/08/19 03:00 1015.9 23.7 74 0 4.4 24 26.3
26/08/19 03:10 1015.8 23.8 75 4.4 19 26.2
26/08/19 03:20 1015.8 23.7 75 0 4.4 22 26.2
26/08/19 03:30 1015.8 23.6 75 0 4.2 26 26.3
26/08/19 03:40 1015.8 23.6 75 3.2 33 26.3
26/08/19 03:50 1015.8 23.8 76 3.1 23 26.2
26/08/19 04:00 1015.8 23.6 75 0 4.3 8 26.2
26/08/19 04:10 1015.9 23.2 74 0 4.5 18 26.1
26/08/19 04:20 1015.9 23.2 74 0 4.5 21 26.2
26/08/19 04:30 1015.9 23.1 75 0 4.9 18 26.1
26/08/19 04:40 1015.9 23 75 0 4.7 24 26.3
26/08/19 04:50 1015.9 23.2 75 0 4.9 19 26.4
26/08/19 05:00 1016 23.1 75 0 4.6 16 26.4
26/08/19 05:10 1016.1 23.2 74 0 4.6 17 26.3
26/08/19 05:20 1016.1 23.3 73 1 5.1 13 26.2
26/08/19 05:30 1016.1 23.1 74 5 4.5 16 26.3
26/08/19 05:40 1016.2 23.1 73 13 4.8 20 26.4
26/08/19 05:50 1016.2 23.1 73 26 4.9 18 26.4
26/08/19 06:00 1016.3 23.2 73 43 5.4 19 26.4
26/08/19 06:10 1016.3 23.2 72 64 4.9 18 26.4
26/08/19 06:20 1016.3 23.3 72 87 4.5 21 26.4
26/08/19 06:30 1016.3 23.5 72 115 4.4 18 26.4
26/08/19 06:40 1016.3 23.5 71 142 5.1 19 26.4
26/08/19 06:50 1016.4 23.7 71 171 5.4 20 26.4
26/08/19 07:00 1016.4 24.2 70 201 5.4 20 26.4
26/08/19 07:10 1016.4 24.5 69 231 5.1 18 26.4
26/08/19 07:20 1016.5 24.9 68 261 5.2 17 26.4
26/08/19 07:30 1016.5 25.2 67 295 5.8 24 26.4
26/08/19 07:40 1016.6 25.3 66 323 5.6 25 26.4
26/08/19 07:50 1016.6 25.7 65 356 5.7 22 26.4
26/08/19 08:00 1016.5 26.2 65 383 5.3 26 26.5
26/08/19 08:10 1016.5 26.5 63 414 5.5 24 26.4
26/08/19 08:20 1016.6 26.9 62 443 5.4 24 26.5
26/08/19 08:30 1016.7 27.5 61 472 5.1 25 26.5
26/08/19 08:40 1016.8 27.8 60 500 4.8 24 26.5
26/08/19 08:50 1016.9 27.8 59 529 5.1 22 26.5
26/08/19 09:00 1016.9 28 58 554 4.9 22 26.5
26/08/19 09:10 1016.8 28.4 58 581 5.6 18 26.5
26/08/19 09:20 1016.8 28.9 57 607 4.6 22 26.5
26/08/19 09:30 1016.8 29.2 56 628 5.3 23 26.5
26/08/19 09:40 1016.9 29.7 55 651 4.9 14 26.5
26/08/19 09:50 1016.9 29.7 54 668 4 25 26.6
26/08/19 10:00 1016.9 29.9 52 683 3.5 18 26.6
26/08/19 10:10 1016.9 30.5 52 708 4.2 21 26.6
26/08/19 10:20 1016.8 30.9 50 714 4.6 39 26.6
26/08/19 10:30 1016.9 30.9 48 741 4.7 40 26.6
26/08/19 10:40 1016.9 30.8 48 752 4.5 38 26.6
26/08/19 10:50 1016.8 30.9 48 766 4.2 41 26.7
26/08/19 11:00 1016.8 31.5 47 777 4.1 81 26.7
26/08/19 11:10 1016.7 31.8 47 790 4 103 26.7
26/08/19 11:20 1016.7 32 47 799 4.5 97 26.7
26/08/19 11:30 1016.6 31.4 47 808 4.7 114 26.7
26/08/19 11:40 1016.6 31.9 47 811 4.5 110 26.7
26/08/19 11:50 1016.6 31.6 47 817 5.1 122 26.7
26/08/19 12:00 1016.5 31.9 47 816 5.3 116 26.7
26/08/19 12:10 1016.6 31.4 46 812 4.4 115 26.7
26/08/19 12:20 1016.5 30.8 47 810 3.9 117 26.7
26/08/19 12:30 1016.4 31.4 48 808 4.5 120 26.7
26/08/19 12:40 1016.3 30.7 47 804 4.1 131 26.7
26/08/19 12:50 1016.3 29.8 48 798 3.8 133 26.8
26/08/19 13:00 1016.3 29.7 49 784 3.2 140 26.8
26/08/19 13:10 1016.3 29.9 50 774 3.2 141 26.8
26/08/19 13:20 1016.1 30.1 50 759 3.1 143 26.8
26/08/19 13:30 1016.1 30.3 52 743 2.7 141 26.8
26/08/19 13:40 1016.1 29.7 52 726 2.7 165 26.8
26/08/19 13:50 1016 29.3 52 712 2.7 170 26.8
26/08/19 14:00 1015.9 29.7 51 694 2.4 172 26.8
26/08/19 14:10 1015.8 29.8 53 679 2.6 178 26.8
26/08/19 14:20 1015.7 29.7 52 660 2.6 185 26.9
26/08/19 14:30 1015.7 29.9 51 633 2.3 182 26.9
26/08/19 14:40 1015.6 29.8 51 613 2.8 178 26.9
26/08/19 14:50 1015.5 30.1 53 593 3.1 177 26.9
26/08/19 15:00 1015.4 29.5 52 570 3.3 174
26/08/19 15:10 1015.3 29.5 53 542 2.6 167 26.9
26/08/19 15:20 1015.3 29.7 51 513 2.2 178 26.9
26/08/19 15:30 1015.2 29.6 51 463 1.8 175 26.9
26/08/19 15:40 1015.2 29.7 51 392 1.9 184 27
26/08/19 15:50 1015.1 30.1 53 385 1.7 195 27
26/08/19 16:00 1015.1 29.6 50 335 1.4 196 27
26/08/19 16:10 1015.1 29.6 51 245 1.8 192 26.9
26/08/19 16:20 1015 29.2 53 186 1.8 189 26.9
26/08/19 16:30 1015 29 50 142 1.1 196 26.9
26/08/19 16:40 1015 29.1 52 146 1.6 199 26.8
26/08/19 16:50 1015 28.8 54 117 0.9 217 26.9
26/08/19 17:00 1015 29.2 51 211 1.2 227 27
26/08/19 17:10 1015 29.5 50 185 0.9 244 27
26/08/19 17:20 1015 29.3 48 153 0.4 171 26.9
26/08/19 17:30 1015 29.5 47 133 0 26.9
26/08/19 17:40 1015.1 29.5 48 109 0 26.9
26/08/19 17:50 1015.2 29.4 49 86 0.4 26.9
26/08/19 18:00 1015.3 29 50 64 0.8 196 26.9
26/08/19 18:10 1015.3 28.9 50 46 1.1 185 26.8
26/08/19 18:20 1015.4 28.5 55 34 0.8 177 26.8
26/08/19 18:30 1015.4 28.3 57 23 0.1 26.8
26/08/19 18:40 1015.3 28.2 60 13 0.3 203 26.8
26/08/19 18:50 1015.2 28.2 61 6 0.1 26.8
26/08/19 19:00 1015.2 27.8 65 2 0.8 145 26.8
26/08/19 19:10 1015.2 27.6 66 1.2 129 26.8
26/08/19 19:20 1015.3 27.5 63 0 1.6 121 26.8
26/08/19 19:30 1015.3 27.6 61 1.4 117 26.8
26/08/19 19:40 1015.3 27.5 60 1.4 112 26.8
26/08/19 19:50 1015.3 27.6 57 1.3 97 26.8
26/08/19 20:00 1015.4 27.7 60 0 1 112 26.8
26/08/19 20:10 1015.5 27.6 56 1 106 26.8
26/08/19 20:20 1015.5 27.4 59 1.1 103 26.8
26/08/19 20:30 1015.5 27.3 60 0 0.9 133 26.8
26/08/19 20:40 1015.5 27.2 58 0 0.1 26.7
26/08/19 20:50 1015.7 27.2 56 0 0 26.7
26/08/19 21:00 1015.8 27.2 62 1.4 26 26.7
26/08/19 21:10 1015.8 26.9 64 1.8 13 26.7
26/08/19 21:20 1015.9 26.9 1.7 5 26.7
26/08/19 21:30 1016.1 26.4 69 0 2.2 3 26.7
26/08/19 21:40 1016.1 26 71 2.6 27 26.8
26/08/19 21:50 1016.2 26 71 0 3 26 26.7
26/08/19 22:00 1016.3 26 69 0 3.2 23 26.8
26/08/19 22:10 1016.4 26 70 0 2.7 22 26.7
26/08/19 22:20 1016.4 25.9 72 0 2.7 42 26.7
26/08/19 22:30 1016.4 26.1 72 3 46 26.7
26/08/19 22:40 1016.4 26 71 3 40 26.7
26/08/19 22:50 1016.4 25.9 72 3.8 36 26.7
26/08/19 23:00 1016.4 25.5 72 3.5 35 26.7
26/08/19 23:10 1016.3 25.7 72 0 3.6 36 26.7
26/08/19 23:20 1016.3 25.6 72 0 3.4 23 26.7
26/08/19 23:30 1016.3 25.5 73 0 3 14 26.7
26/08/19 23:40 1016.1 25.4 73 0 4.1 21 26.7
26/08/19 23:50 1016 25.3 72 0 4.4 21 26.6
27/08/19 00:00 1015.9 25.1 72 0 5.1 23 26.6
27/08/19 00:10 1015.9 24.9 72 0 4.6 20 26.6
27/08/19 00:20 1015.8 24.8 70 0 4.6 22 26.6
27/08/19 00:30 1015.8 25.1 71 0 4.9 24 26.6
27/08/19 00:40 1015.7 24.7 72 0 4.6 22 26.6
27/08/19 00:50 1015.7 24.7 72 0 4.1 22 26.6
27/08/19 01:00 1015.7 24.6 71 0 4.6 18 26.5
27/08/19 01:10 1015.8 24.5 71 0 4.2 17 26.5
27/08/19 01:20 1015.7 24.4 71 0 5 26 26.5
27/08/19 01:30 1015.6 24.3 71 0 5.2 22 26.5
27/08/19 01:40 1015.6 24.3 71 0 4.6 23 26.5
27/08/19 01:50 1015.6 24.2 72 0 4.8 20 26.5
27/08/19 02:00 1015.6 24.2 73 0 4.9 19 26.5
27/08/19 02:10 1015.6 24.3 73 0 4.2 26 26.5
27/08/19 02:20 1015.6 24.3 73 4.5 27 26.4
27/08/19 02:30 1015.5 24.2 73 0 4.9 27 26.4
27/08/19 02:40 1015.6 24.1 73 0 5.6 33 26.4
27/08/19 02:50 1015.7 24 73 0 4.5 34 26.4
27/08/19 03:00 1015.7 23.9 73 0 4.7 34 26.4
27/08/19 03:10 1015.7 23.8 72 0 5 33 26.4
27/08/19 03:20 1015.6 24 73 0 3.8 29 26.4
27/08/19 03:30 1015.6 24 72 0 4.7 21 26.4
27/08/19 03:40 1015.6 23.7 71 0 4.1 20 26.4
27/08/19 03:50 1015.6 23.8 72 4 24 26.4
27/08/19 04:00 1015.8 23.9 73 4.7 18 26.4
27/08/19 04:10 1015.7 23.8 75 0 4.4 23 26.4
27/08/19 04:20 1015.7 23.8 73 0 4 17 26.4
27/08/19 04:30 1015.7 23.7 73 0 4.2 13 26.6
27/08/19 04:40 1015.7 23.7 74 0 4.1 10 26.6
27/08/19 04:50 1015.8 23.6 74 0 4.6 6 26.6
27/08/19 05:00 1015.7 23.5 74 0 4 3 26.6
27/08/19 05:10 1015.8 23.2 74 0 3.8 10 26.6
27/08/19 05:20 1015.8 23.4 74 1 3.6 13 26.6
27/08/19 05:30 1015.9 23.3 73 6 3.2 7 26.6
27/08/19 05:40 1015.9 23.2 73 13 4 15 26.5
27/08/19 05:50 1016.1 23.3 73 25 3.4 11 26.5
27/08/19 06:00 1016.2 23.3 73 42 4 20 26.5
27/08/19 06:10 1016.3 23.4 73 62 4.1 16 26.5
27/08/19 06:20 1016.3 23.5 72 83 3.6 17 26.5
27/08/19 06:30 1016.4 23.7 72 108 3.7 4 26.5
27/08/19 06:40 1016.4 23.8 71 136 3.4 15 26.5
27/08/19 06:50 163 4.1 13 26.5
27/08/19 07:00 1016.6 24 71 194 4.2 15 26.5
27/08/19 07:10 1016.7 24.7 71 224 3.4 11 26.5
27/08/19 07:20 1016.8 25.2 69 255 3.5 5 26.5
27/08/19 07:30 1016.8 25.6 67 283 3.9 11 26.6
27/08/19 07:40 1016.6 25.9 65 317 4.1 23 26.6
27/08/19 07:50 1016.6 26 65 349 4 20 26.6
27/08/19 08:00 1016.6 26.5 64 378 4.1 12 26.6
27/08/19 08:10 1016.7 27 63 408 4 21 26.6
27/08/19 08:20 1016.9 27.2 61 433 3.3 7 26.6
27/08/19 08:30 1017 27.6 60 465 3.7 16 26.6
27/08/19 08:40 1017 28.1 59 491 3.6 25 26.6
27/08/19 08:50 1017 28.2 57 518 3.8 25 26.6
27/08/19 09:00 1017.1 28.4 56 550 4 23 26.6
27/08/19 09:10 1017.2 28.6 55 571 3.1 12 26.6
27/08/19 09:20 1017.1 29 55 603 3.2 21 26.6
27/08/19 09:30 1017 29.2 54 626 3.9 29 26.6
27/08/19 09:40 1016.9 29.8 52 646 3.3 33 26.6
27/08/19 09:50 1016.8 30.4 51 675 3.6 32 26.5
27/08/19 10:00 1016.9 30.4 50 697 3.5 22 26.6
27/08/19 10:10 1016.9 30.8 49 708 2.9 22 26.6
27/08/19 10:20 1017 31 49 724 2.6 34 26.7
27/08/19 10:30 1017 31.2 49 742 2.8 29 26.7
27/08/19 10:40 1016.9 31.2 47 759 3.1 34 26.7
27/08/19 10:50 1017 31.1 47 769 2.7 31 26.7
27/08/19 11:00 1016.9 31.3 46 780 2.4 20 26.7
27/08/19 11:10 1016.9 31.4 46 795 2.2 94 26.8
27/08/19 11:20 1017 31.3 46 793 1 74 26.8
27/08/19 11:30 1017 31.3 46 806 1.3 153 26.8
27/08/19 11:40 1016.9 32.3 45 815 1.9 128 26.9
27/08/19 11:50 1016.9 32 44 816 1.8 132 26.9
27/08/19 12:00 1016.8 32.2 44